sat.trackr.live / text

‹ back to catalog

STARLINK-4531

NORAD 53425 · 2022-097AP

PAYLOAD ACTIVE UNKNOWN

§ Identity

Operator
Country
US
Launch date
2022-08-10
Launch site
AFETR
Launch vehicle
Mass (kg)
RCS (m²)

Purposes: comms

External: N2YO · Heavens-Above · Gunter

§ Orbital elements

Epoch: 2026-09-19T18:57:40.196448Z

Period
94.01 min
Inclination
53.1593°
Eccentricity
0.0001310
Mean motion
15.31699753 rev/d
Perigee alt
469.8 km
Apogee alt
471.6 km
Semi-major
6,848.9 km
B*
9.2723e-6
RAAN
307.7927°
Arg perigee
70.4379°
Mean anomaly
289.6763°
Rev number
22,812

§ Raw data

STARLINK-45311 53425U 22097AP  26262.79004857 -.00000077  00000+0  92723-5 0  99992 53425  53.1593 307.7927 0001310  70.4379 289.6763 15.31699753228122

JSON: /api/v1/satellites/53425 · /tle

For live sub-satellite position, see the globe view (requires WebGL).

§ Visibility from observer

Set your observer location to see the next 7 days of passes ≥ 10°. The values pass through the URL so the page stays shareable.

No JS? Fill the form by hand. The geolocation button needs JavaScript.